Regional Weather Roundup
Issued by NWS

Home | Current Version | Previous Version | Text Only | Print | Product List | Glossary Off
Versions: 1 2 3 4 5 6 7 8 9 10 11 12 13 14 15 16 17 18 19 20 21 22 23 24 25 26 27 28 29 30 31 32 33 34 35 36 37 38 39 40 41 42 43 44 45 46 47 48 49 50

000
ASUS43 KFSD 251602
RWRSD

WEATHER ROUNDUP FOR SOUTH DAKOTA
NATIONAL WEATHER SERVICE SIOUX FALLS SD
1000 AM CST THU DEC 25 2014

NOTE: "FAIR" INDICATES FEW OR NO CLOUDS BELOW 12,000 FEET WITH NO
SIGNIFICANT WEATHER AND/OR OBSTRUCTIONS TO VISIBILITY.


SDZ001>005-009-010-012>017-251700-
NORTHWEST AND NORTH CENTRAL SOUTH DAKOTA

CITY           SKY/WX    TMP DP  RH WIND       PRES   REMARKS
FAITH            N/A     28  24  85 N16       29.72R WCI  16
MOBRIDGE       CLOUDY    30  25  81 N8        29.70R WCI  22
$$

SDZ012>016-024>037-041>051-057-063-072>074-251700-
SOUTHWEST AND SOUTH CENTRAL SOUTH DAKOTA

CITY           SKY/WX    TMP DP  RH WIND       PRES   REMARKS
RAPID CTY ARPT SNOW      30  28  92 N21       29.68R VSB 1/2 WCI  17
PIERRE         LGT SNOW  31  29  92 N12       29.68R FOG     WCI  22
CUSTER         LGT SNOW  24  19  81 NE16G24   29.57R WCI  11
ELLSWORTH AFB  FLURRIES  30  29  97 N15       29.69R WCI  19
PHILIP         LGT SNOW  32  30  92 N9        29.69R VSB 3/4 WCI  24
PINE RIDGE     CLOUDY    31  27  85 N13       29.61R WCI  21
WINNER         CLOUDY    31  28  89 N10       29.63R WCI  22
$$

SDZ004>011-016>023-039-040-251700-
NORTHEAST SOUTH DAKOTA

CITY           SKY/WX    TMP DP  RH WIND       PRES   REMARKS
ABERDEEN       CLOUDY    31  25  78 N13       29.70R WCI  21
WATERTOWN      LGT SNOW  30  28  92 N9        29.65R FOG     WCI  22
SISSETON         N/A     29  25  85 N9        29.69R WCI  20
$$

SDZ017-020-022-023-036>040-048>070-251700-
SOUTHEAST SOUTH DAKOTA

CITY           SKY/WX    TMP DP  RH WIND       PRES   REMARKS
SIOUX FALLS    PTSUNNY   32  28  85 E7        29.65R WCI  26
HURON          LGT SNOW  29  27  92 N7        29.68R FOG     WCI  22
CHAMBERLAIN    CLOUDY    32  30  92 N8        29.65R WCI  25
MITCHELL       CLOUDY    31  28  89 NE7       29.65R WCI  24
YANKTON        PTSUNNY   28  25  86 NE6       29.63S WCI  22
$$

ABBREVIATIONS USED IN REMARKS
   TC - TEMPERATURE IN CELSIUS
  WCI - WIND CHILL INDEX
   HX - HEAT INDEX
  VSB - VISIBILITY



USA.gov is the U.S. government's official web portal to all federal, state and local government web resources and services.